Вернуться в каталог

TELSTAR 11N

АктивенСвязьGEO
NORAD 34111·PAYLOAD·🇨🇦 Canada

Запущен Feb 26, 2009 с Baikonur Cosmodrome

Loading…

TLE

СвежийSource: CelesTrak SupGP

Эпоха: Sep 14, 2026, 04:59 UTC

1 34111C 09009A   26257.20833333 -.00000161  00000+0  00000+0 0  2579
2 34111   0.0264 249.9959 0002560 277.2122 223.4370  1.00271430    17

Отслеживайте TELSTAR 11N в реальном времени с AllMySat

Download on the App Store